Weather in Daugavpils

Latvia     55˚52′19″N   26˚31′24″E
temp.,
°C
wind,
m/s
gust,
m/s
humid.,
%
clouds,
%
prec.,
mm/h
press.,
hPa
HPBL,
m
27 november, fri
fri2723:00+3˚sw4888100 0.0 1011349
02:00+3˚sw4992100 0.7 1009449
05:00+3˚wsw4994100 3.6 1008465
08:00+4˚w3896100 5.7 1007443
11:00+4˚nw598081 0.4 1009919
14:00+3˚nw488581 0.6 1010848
17:00nnw4890100 0.6 1012649
20:00nnw379099 0.8 1013568
28 november, sat
sat2823:00n379291 0.2 1015540
02:00−2˚n379478 0.2 1016353
05:00−1˚nnw479598 0.3 1017428
08:00n489799 1.4 1018455
11:00+1˚n4897100 0.4 1019417
14:00+1˚nne4797100 0.6 1020477
17:00+1˚nne3798100 0.3 1020353
20:00+1˚ne4895100 0.4 1022540
29 november, sun
sun2923:00−1˚ese3694100 0.6 1022377
02:00−2˚ne259762 0.6 1023187
05:00−1˚ene389297 0.1 1023427
08:00−1˚ene379589 0.1 1023389
11:00ene468699 0.0 1024605
14:00+1˚ne3682100 0.1 1023666
17:00ne3692100 0.1 1022456
20:00−1˚nne3688100 0.1 1022460
30 november, mon
mon3023:00−1˚nnw3596100 0.6 1020304
02:00−1˚nw2496100 1.4 1020283
05:00−1˚w139797 0.4 1020172
08:00−2˚sw239798 0.8 1021167
11:00−1˚sw359291 0.2 1021414
14:00−1˚sw489189 0.4 1022576
17:00−1˚sw499094 0.2 1022587
20:00−2˚sw389395 0.2 1024495
1 december, tue
tue123:00−2˚sw499297 0.1 1024571
02:00−3˚ssw389285 0.1 1025318
05:00−4˚ssw389411 0.0 1026291
08:00−4˚s379321 0.0 1027291
11:00−2˚s368775 0.0 1028417
14:00−2˚s348281 0.0 1028608
17:00−2˚sse2581100 0.0 1029646
20:00−2˚se258798 0.0 1030265